Charleston, SC

9:20 AM EDT on March 23, 2017 (GMT -0400)
Charleston Executive

Weather History for KJZI - August, 2014

Change the Weather History Date:

Wednesday, August 13, 2014

  Actual Average (KCHS) Record (KCHS)
Temperature  
Mean Temperature 84 °F -  
Max Temperature 91 °F 88 °F 100 °F (1995)
Min Temperature 77 °F 71 °F 61 °F (1979)
Cooling Degree Days 19    
Growing Degree Days 34 (Base 50)    
Moisture  
Dew Point 77 °F    
Average Humidity 81    
Maximum Humidity 94    
Minimum Humidity 55    
Precipitation  
Precipitation 0.00 in - - ()
Sea Level Pressure  
Sea Level Pressure 29.89 in    
Wind  
Wind Speed 4 mph (WSW)    
Max Wind Speed 13 mph    
Max Gust Speed 17 mph    
Visibility 10 miles    
Events      
Averages and records for this station are not official NWS values.
T = Trace of Precipitation, MM = Missing Value Source: NWS Daily Summary

Daily Weather History Graph

Daily Weather History Graph

Search for Another Location

Airport or City:

Trip Planner

Search our weather history database for the weather conditions in past years. The results will help you decide how hot, cold, wet, or windy it might be!

Date:

Astronomy

Aug. 13, 2014 Rise Set
Actual Time 6:42 AM EDT 8:07 PM EDT
Civil Twilight 6:16 AM EDT 8:33 PM EDT
Nautical Twilight 5:44 AM EDT 9:04 PM EDT
Astronomical Twilight 5:12 AM EDT 9:36 PM EDT
Moon 10:06 PM EDT (8/13) 9:54 AM EDT (8/13)
Length of Visible Light 14h 17m
Length of Day
13h 24m
Waning Gibbous, 88% of the Moon is Illuminated
Aug 13
Waning Gibbous
Aug 17
Last Quarter
Aug 25
New
Sep 2
First Quarter
Sep 8
Full

Hourly Weather History & Observations

Time (EDT) Temp. Heat Index Dew Point Humidity Pressure Visibility Wind Dir Wind Speed Gust Speed Precip Events Conditions
12:15 AM 78.8 °F - 77.0 °F 94% 29.88 in 10.0 mi Calm Calm - 0.00 in   Clear
12:35 AM 78.8 °F - 77.0 °F 94% 29.87 in 10.0 mi Calm Calm - 0.00 in   Clear
12:55 AM 80.6 °F 86.2 °F 75.2 °F 84% 29.87 in 10.0 mi Calm Calm - 0.00 in   Clear
1:15 AM 80.6 °F 86.2 °F 75.2 °F 84% 29.87 in 10.0 mi SW 3.5 mph - 0.00 in   Clear
1:35 AM 80.6 °F 86.2 °F 75.2 °F 84% 29.87 in 10.0 mi Calm Calm - 0.00 in   Clear
1:55 AM 80.6 °F 86.2 °F 75.2 °F 84% 29.87 in 10.0 mi Calm Calm - 0.00 in   Clear
2:15 AM 80.6 °F 86.2 °F 75.2 °F 84% 29.87 in 10.0 mi Calm Calm - 0.00 in   Clear
2:35 AM 80.6 °F 86.2 °F 75.2 °F 84% 29.86 in 10.0 mi Calm Calm - 0.00 in   Partly Cloudy
2:55 AM 78.8 °F - 77.0 °F 94% 29.87 in 10.0 mi Calm Calm - 0.00 in   Clear
3:15 AM 78.8 °F - 77.0 °F 94% 29.86 in 10.0 mi Calm Calm - 0.00 in   Clear
3:35 AM 78.8 °F - 77.0 °F 94% 29.86 in 10.0 mi Calm Calm - 0.00 in   Clear
3:55 AM 78.8 °F - 77.0 °F 94% 29.86 in 10.0 mi Calm Calm - 0.00 in   Clear
4:15 AM 78.8 °F - 77.0 °F 94% 29.86 in 10.0 mi Calm Calm - 0.00 in   Clear
4:35 AM 78.8 °F - 77.0 °F 94% 29.86 in 10.0 mi Calm Calm - 0.00 in   Clear
4:55 AM 78.8 °F - 75.2 °F 89% 29.86 in 10.0 mi West 3.5 mph - 0.00 in   Clear
5:35 AM 78.8 °F - 75.2 °F 89% 29.86 in 10.0 mi West 9.2 mph - 0.00 in   Clear
5:55 AM 78.8 °F - 75.2 °F 89% 29.86 in 10.0 mi West 8.1 mph - 0.00 in   Clear
6:15 AM 78.8 °F - 75.2 °F 89% 29.86 in 10.0 mi West 10.4 mph - 0.00 in   Clear
6:35 AM 78.8 °F - 75.2 °F 89% 29.87 in 10.0 mi Calm Calm - 0.00 in   Clear
6:55 AM 77.0 °F - 75.2 °F 94% 29.87 in 10.0 mi West 6.9 mph - 0.00 in   Clear
7:15 AM 77.0 °F - 75.2 °F 94% 29.87 in 10.0 mi West 8.1 mph - 0.00 in   Clear
7:35 AM 77.0 °F - 75.2 °F 94% 29.88 in 10.0 mi West 6.9 mph - 0.00 in   Clear
8:15 AM 78.8 °F - 75.2 °F 89% 29.89 in 10.0 mi West 6.9 mph - 0.00 in   Clear
10:35 AM 84.2 °F 92.3 °F 75.2 °F 74% 29.92 in 10.0 mi West 8.1 mph - 0.00 in   Clear
11:35 AM 86.0 °F 95.1 °F 75.2 °F 70% 29.93 in 10.0 mi West 6.9 mph - 0.00 in   Clear
11:55 AM 87.8 °F 95.6 °F 73.4 °F 62% 29.94 in 10.0 mi West 4.6 mph - 0.00 in   Clear
12:15 PM 89.6 °F 99.8 °F 75.2 °F 62% 29.94 in 10.0 mi West 3.5 mph - 0.00 in   Clear
12:35 PM 89.6 °F 98.2 °F 73.4 °F 59% 29.94 in 10.0 mi West 6.9 mph - 0.00 in   Clear
12:55 PM 89.6 °F 98.2 °F 73.4 °F 59% 29.93 in 10.0 mi West 10.4 mph - 0.00 in   Clear
1:15 PM 89.6 °F 98.2 °F 73.4 °F 59% 29.93 in 10.0 mi SW 10.4 mph - 0.00 in   Clear
1:35 PM 89.6 °F 98.2 °F 73.4 °F 59% 29.92 in 10.0 mi WSW 8.1 mph - 0.00 in   Clear
1:55 PM 91.4 °F 100.1 °F 73.4 °F 55% 29.92 in 10.0 mi WSW 6.9 mph - 0.00 in   Clear
2:15 PM 91.4 °F 100.1 °F 73.4 °F 55% 29.91 in 10.0 mi West 8.1 mph - 0.00 in   Partly Cloudy
2:35 PM 91.4 °F 100.1 °F 73.4 °F 55% 29.91 in 10.0 mi WSW 11.5 mph 16.1 mph 0.00 in   Clear
2:55 PM 91.4 °F 102.5 °F 75.2 °F 59% 29.91 in 10.0 mi SW 6.9 mph - 0.00 in   Scattered Clouds
3:15 PM 91.4 °F 107.2 °F 78.8 °F 66% 29.90 in 10.0 mi SSW 12.7 mph - 0.00 in   Scattered Clouds
3:35 PM 89.6 °F 102.2 °F 77.0 °F 66% 29.89 in 10.0 mi SSW 6.9 mph - 0.00 in   Mostly Cloudy
3:55 PM 87.8 °F 102.5 °F 78.8 °F 75% 29.89 in 10.0 mi South 9.2 mph - 0.00 in   Mostly Cloudy
4:15 PM 87.8 °F 102.5 °F 78.8 °F 75% 29.88 in 10.0 mi SW 9.2 mph - 0.00 in   Mostly Cloudy
4:35 PM 87.8 °F 102.5 °F 78.8 °F 75% 29.88 in 10.0 mi SSW 10.4 mph - 0.00 in   Partly Cloudy
4:55 PM 87.8 °F 102.5 °F 78.8 °F 75% 29.89 in 10.0 mi SSW 8.1 mph - 0.00 in   Scattered Clouds
5:35 PM 87.8 °F 104.9 °F 80.6 °F 79% 29.90 in 10.0 mi SSW 6.9 mph - 0.00 in   Scattered Clouds
5:55 PM 87.8 °F 104.9 °F 80.6 °F 79% 29.90 in 10.0 mi SSW 6.9 mph - 0.00 in   Clear
6:15 PM 87.8 °F 104.9 °F 80.6 °F 79% 29.90 in 10.0 mi SW 12.7 mph 17.3 mph 0.00 in   Clear
6:35 PM 87.8 °F 104.9 °F 80.6 °F 79% 29.89 in 10.0 mi SSW 9.2 mph - 0.00 in   Clear
6:55 PM 86.0 °F 101.9 °F 80.6 °F 84% 29.90 in 10.0 mi SW 9.2 mph - 0.00 in   Clear
7:15 PM 86.0 °F 101.9 °F 80.6 °F 84% 29.90 in 10.0 mi SW 6.9 mph - 0.00 in   Clear
7:35 PM 84.2 °F 98.3 °F 80.6 °F 89% 29.90 in 10.0 mi SSW 8.1 mph - 0.00 in   Clear
7:55 PM 84.2 °F 98.3 °F 80.6 °F 89% 29.91 in 10.0 mi SW 6.9 mph - 0.00 in   Clear
8:15 PM 84.2 °F 98.3 °F 80.6 °F 89% 29.91 in 10.0 mi SSW 8.1 mph - 0.00 in   Clear
8:35 PM 84.2 °F 96.1 °F 78.8 °F 84% 29.91 in 7.0 mi SW 6.9 mph - 0.00 in   Clear
9:15 PM 82.4 °F 94.0 °F 80.6 °F 94% 29.92 in 10.0 mi Calm Calm - 0.00 in   Clear
9:35 PM 82.4 °F 92.4 °F 78.8 °F 89% 29.93 in 10.0 mi Calm Calm - 0.00 in   Clear
10:15 PM 82.4 °F 92.4 °F 78.8 °F 89% 29.93 in 10.0 mi Calm Calm - 0.00 in   Clear
11:15 PM 80.6 °F 88.1 °F 78.8 °F 94% 29.94 in 10.0 mi Calm Calm - 0.00 in   Partly Cloudy